KLM6625 LEAL-EHAM

Flight info

Callsign KLM6625
Flight time 2h 10m
Altitude 32000
Route MITOS DCT ARGOR DCT EBROX/N0425F340 DCT LATRO DCT OLOXO DCT OKABI DCT TOU DCT ADABI DCT BOKNO DCT DEVRO DCT VANAD DCT PIWIZ/N0434F360 DCT VADOM DCT BAMES DCT ARSAF DCT EGOZE DCT CMB DCT VEKIN DCT ADUTO N873 FERDI/N0353F240 Y18 DENUT
Aircraft E195/M-SDE3GILORVW/S

Departure

Time 2026-05-04 13:20
Airport Alicante-Elche Miguel Hernández Airport (LEAL)

Arrival

Time 2026-05-04 15:30
Airport Amsterdam Airport Schiphol (EHAM)
Time Latitude Longitude Altitude Speed Heading
2026-05-04 12:36 38.28771 -0.55006 71 ft 0 kts 279°
2026-05-04 12:51 38.28771 -0.55007 71 ft 0 kts 279°
2026-05-04 12:51 38.28769 -0.54995 71 ft 3 kts 279°
2026-05-04 12:52 38.28767 -0.54978 70 ft 2 kts 280°
2026-05-04 12:52 38.28764 -0.54959 69 ft 2 kts 280°
2026-05-04 12:52 38.28762 -0.54945 68 ft 0 kts 279°
2026-05-04 12:52 38.28762 -0.54928 67 ft 2 kts 250°
2026-05-04 12:53 38.28771 -0.54913 66 ft 2 kts 214°
2026-05-04 12:53 38.28778 -0.54908 66 ft 0 kts 197°
2026-05-04 12:53 38.28759 -0.54915 66 ft 1 kts 191°
2026-05-04 12:53 38.28740 -0.54919 66 ft 4 kts 189°
2026-05-04 12:54 38.28727 -0.54922 66 ft 0 kts 190°
2026-05-04 12:55 38.28717 -0.54925 66 ft 2 kts 191°
2026-05-04 12:56 38.28687 -0.54932 67 ft 5 kts 191°
2026-05-04 12:56 38.28640 -0.54944 67 ft 8 kts 190°
2026-05-04 12:56 38.28573 -0.54959 68 ft 11 kts 191°
2026-05-04 12:56 38.28494 -0.54978 69 ft 11 kts 189°
2026-05-04 12:57 38.28427 -0.55011 71 ft 9 kts 236°
2026-05-04 12:57 38.28421 -0.55069 75 ft 4 kts 268°
2026-05-04 12:57 38.28415 -0.55104 76 ft 4 kts 248°
2026-05-04 12:57 38.28394 -0.55147 79 ft 7 kts 233°
2026-05-04 12:58 38.28345 -0.55210 82 ft 12 kts 191°
2026-05-04 12:58 38.28297 -0.55125 78 ft 15 kts 97°
2026-05-04 12:58 38.28274 -0.54966 70 ft 21 kts 101°
2026-05-04 12:58 38.28246 -0.54765 61 ft 21 kts 100°
2026-05-04 12:59 38.28225 -0.54586 56 ft 21 kts 100°
2026-05-04 12:59 38.28197 -0.54455 52 ft 6 kts 140°
2026-05-04 12:59 38.28154 -0.54449 52 ft 5 kts 186°
2026-05-04 12:59 38.28142 -0.54451 52 ft 0 kts 188°
2026-05-04 13:14 38.28141 -0.54451 52 ft 0 kts 188°
2026-05-04 13:14 38.28135 -0.54452 52 ft 2 kts 189°
2026-05-04 13:14 38.28104 -0.54459 53 ft 6 kts 190°
2026-05-04 13:15 38.28048 -0.54475 53 ft 9 kts 205°
2026-05-04 13:15 38.28037 -0.54543 55 ft 7 kts 279°
2026-05-04 13:15 38.28045 -0.54594 57 ft 0 kts 282°
2026-05-04 13:15 38.28046 -0.54596 57 ft 0 kts 282°
2026-05-04 13:18 38.28046 -0.54597 57 ft 0 kts 281°
2026-05-04 13:18 38.28064 -0.54718 61 ft 40 kts 279°
2026-05-04 13:19 38.28148 -0.55320 86 ft 96 kts 279°
2026-05-04 13:19 38.28241 -0.55986 98 ft 130 kts 279°
2026-05-04 13:19 38.28498 -0.57793 240 ft 172 kts 280°
2026-05-04 13:19 38.28774 -0.59319 458 ft 193 kts 283°
2026-05-04 13:20 38.29131 -0.60936 766 ft 178 kts 277°
2026-05-04 13:20 38.29374 -0.62430 866 ft 170 kts 282°
2026-05-04 13:20 38.29666 -0.63959 1308 ft 187 kts 281°
2026-05-04 13:20 38.30155 -0.65586 1677 ft 211 kts 298°
2026-05-04 13:21 38.30993 -0.67168 2263 ft 221 kts 301°
2026-05-04 13:21 38.31859 -0.68764 3023 ft 221 kts 302°
2026-05-04 13:21 38.32896 -0.70222 3769 ft 225 kts 320°
2026-05-04 13:21 38.34311 -0.71219 4258 ft 244 kts 339°
2026-05-04 13:22 38.36068 -0.71652 4493 ft 267 kts 357°
2026-05-04 13:22 38.37974 -0.71357 4922 ft 280 kts 15°
2026-05-04 13:22 38.39756 -0.70352 5513 ft 286 kts 32°
2026-05-04 13:22 38.41275 -0.68714 6159 ft 289 kts 48°
2026-05-04 13:23 38.42390 -0.66573 6762 ft 292 kts 65°
2026-05-04 13:23 38.43006 -0.64109 7306 ft 295 kts 82°
2026-05-04 13:23 38.43074 -0.61530 7851 ft 297 kts 98°
2026-05-04 13:23 38.42610 -0.58937 8372 ft 299 kts 107°
2026-05-04 13:24 38.42158 -0.56350 8864 ft 304 kts 104°
2026-05-04 13:24 38.41724 -0.53722 9379 ft 307 kts 104°
2026-05-04 13:24 38.41286 -0.51059 9892 ft 309 kts 105°
2026-05-04 13:25 38.40504 -0.46478 12403 ft 247 kts 108°
2026-05-04 13:25 38.40136 -0.44376 12998 ft 246 kts 108°
2026-05-04 13:25 38.39755 -0.42250 13553 ft 247 kts 109°
2026-05-04 13:25 38.39364 -0.40126 14059 ft 247 kts 109°
2026-05-04 13:26 38.38963 -0.38011 14608 ft 248 kts 110°
2026-05-04 13:26 38.38544 -0.35856 15118 ft 250 kts 111°
2026-05-04 13:26 38.38089 -0.33627 15178 ft 273 kts 112°
2026-05-04 13:26 38.37566 -0.31216 15266 ft 296 kts 112°
2026-05-04 13:27 38.36966 -0.28585 15355 ft 319 kts 112°
2026-05-04 13:27 38.36291 -0.25753 15442 ft 343 kts 113°
2026-05-04 13:27 38.35638 -0.22740 15601 ft 366 kts 104°
2026-05-04 13:27 38.35421 -0.19463 16051 ft 381 kts 92°
2026-05-04 13:28 38.35728 -0.16105 16657 ft 388 kts 79°
2026-05-04 13:28 38.36535 -0.12808 17061 ft 401 kts 68°
2026-05-04 13:28 38.37850 -0.09576 17061 ft 423 kts 56°
2026-05-04 13:28 38.39682 -0.06549 17148 ft 440 kts 45°
2026-05-04 13:29 38.41950 -0.03924 17507 ft 446 kts 34°
2026-05-04 13:29 38.44570 -0.01807 18045 ft 445 kts 23°
2026-05-04 13:29 38.47423 -0.00291 18665 ft 441 kts 12°
2026-05-04 13:29 38.50395 0.00578 19279 ft 437 kts
2026-05-04 13:30 38.53414 0.00791 19807 ft 433 kts 352°
2026-05-04 13:30 38.56434 0.00944 20310 ft 444 kts
2026-05-04 13:30 38.59515 0.01779 20807 ft 456 kts 12°
2026-05-04 13:30 38.62488 0.03286 21303 ft 466 kts 23°
2026-05-04 13:31 38.65282 0.05439 21806 ft 474 kts 33°
2026-05-04 13:31 38.68041 0.07754 22274 ft 475 kts 25°
2026-05-04 13:31 38.71027 0.09493 22769 ft 473 kts 15°
2026-05-04 13:31 38.74171 0.10727 23244 ft 474 kts 11°
2026-05-04 13:32 38.77347 0.11888 23745 ft 478 kts 11°
2026-05-04 13:32 38.80592 0.13080 24210 ft 482 kts 11°
2026-05-04 13:32 38.83828 0.14275 24663 ft 486 kts 11°
2026-05-04 13:32 38.87080 0.15469 25113 ft 489 kts 11°
2026-05-04 13:33 38.90383 0.16316 25548 ft 486 kts
2026-05-04 13:33 38.93741 0.16678 26031 ft 487 kts
2026-05-04 13:33 38.97109 0.17276 26600 ft 490 kts
2026-05-04 13:33 39.00464 0.17979 27186 ft 490 kts
2026-05-04 13:34 39.03827 0.18713 27836 ft 488 kts
2026-05-04 13:34 39.07161 0.19449 28400 ft 488 kts
2026-05-04 13:34 39.10531 0.20197 28964 ft 487 kts
2026-05-04 13:34 39.13855 0.20934 29517 ft 486 kts
2026-05-04 13:35 39.17244 0.21687 30069 ft 486 kts
2026-05-04 13:35 39.23888 0.23166 31026 ft 486 kts
2026-05-04 13:35 39.27184 0.23900 31526 ft 485 kts
2026-05-04 13:36 39.30520 0.24646 31844 ft 476 kts
2026-05-04 13:36 39.37186 0.26131 31936 ft 495 kts
2026-05-04 13:37 39.44108 0.27681 31934 ft 513 kts
2026-05-04 13:37 39.51194 0.29357 31929 ft 515 kts
2026-05-04 13:38 39.57855 0.32869 31942 ft 527 kts 27°
2026-05-04 13:38 39.64084 0.37858 31935 ft 527 kts 28°
2026-05-04 13:39 39.70354 0.42789 31936 ft 525 kts 28°
2026-05-04 13:39 39.76630 0.47726 31936 ft 526 kts 28°
2026-05-04 13:40 39.82899 0.52668 31936 ft 527 kts 28°
2026-05-04 13:40 39.89164 0.57618 31936 ft 527 kts 28°
2026-05-04 13:41 39.95444 0.62590 31930 ft 527 kts 28°
2026-05-04 13:41 40.01704 0.67558 31923 ft 528 kts 28°
2026-05-04 13:42 40.11105 0.75036 31913 ft 528 kts 29°
2026-05-04 13:42 40.17365 0.80032 31904 ft 526 kts 28°
2026-05-04 13:43 40.23643 0.85051 31903 ft 527 kts 29°
2026-05-04 13:43 40.29897 0.90063 31906 ft 525 kts 29°
2026-05-04 13:44 40.36129 0.95067 31913 ft 526 kts 29°
2026-05-04 13:44 40.42365 1.00087 31910 ft 525 kts 29°
2026-05-04 13:45 40.48589 1.05107 31920 ft 525 kts 29°
2026-05-04 13:45 40.54806 1.10133 31929 ft 525 kts 29°
2026-05-04 13:46 40.61090 1.15225 31929 ft 525 kts 29°
2026-05-04 13:46 40.67289 1.20257 31925 ft 527 kts 29°
2026-05-04 13:47 40.73858 1.24326 31927 ft 518 kts 12°
2026-05-04 13:47 40.80786 1.26737 31935 ft 516 kts 10°
2026-05-04 13:48 40.87719 1.29217 31930 ft 515 kts 10°
2026-05-04 13:48 40.94655 1.31712 31939 ft 516 kts 10°
2026-05-04 13:49 41.01588 1.34214 31942 ft 515 kts 11°
2026-05-04 13:49 41.08528 1.36721 31942 ft 515 kts 11°
2026-05-04 13:50 41.15447 1.39228 31935 ft 515 kts 11°
2026-05-04 13:50 41.22390 1.41748 31932 ft 515 kts 11°
2026-05-04 13:51 41.29292 1.44259 31926 ft 515 kts 11°
2026-05-04 13:51 41.36207 1.46781 31929 ft 515 kts 11°
2026-05-04 13:52 41.46597 1.50579 31930 ft 517 kts 11°
2026-05-04 13:53 41.53556 1.53130 31932 ft 517 kts 11°
2026-05-04 13:53 41.60467 1.55670 31932 ft 517 kts 11°
2026-05-04 13:54 41.70861 1.59500 31931 ft 516 kts 11°
2026-05-04 13:54 41.77878 1.61314 31938 ft 507 kts 357°
2026-05-04 13:55 41.81367 1.61280 31935 ft 498 kts 348°
2026-05-04 13:55 41.91647 1.59552 31939 ft 497 kts 347°
2026-05-04 13:56 41.98530 1.58460 31938 ft 498 kts 347°
2026-05-04 13:57 42.08837 1.56824 31937 ft 498 kts 347°
2026-05-04 13:58 42.22677 1.54619 31946 ft 498 kts 347°
2026-05-04 13:58 42.32997 1.52968 31964 ft 499 kts 347°
2026-05-04 13:59 42.39896 1.51862 31966 ft 498 kts 347°
2026-05-04 14:00 42.50269 1.50194 31961 ft 500 kts 347°
2026-05-04 14:00 42.60688 1.48513 31952 ft 501 kts 347°
2026-05-04 14:01 42.67579 1.47406 31938 ft 501 kts 347°
2026-05-04 14:02 42.77977 1.45733 31940 ft 501 kts 348°
2026-05-04 14:02 42.84933 1.44609 31940 ft 502 kts 348°
2026-05-04 14:03 42.91861 1.43488 31927 ft 503 kts 348°
2026-05-04 14:03 42.98790 1.42365 31929 ft 501 kts 348°
2026-05-04 14:04 43.09203 1.40671 31930 ft 501 kts 348°
2026-05-04 14:04 43.16131 1.39541 31917 ft 502 kts 348°
2026-05-04 14:05 43.26484 1.37848 31916 ft 500 kts 348°
2026-05-04 14:06 43.33432 1.36708 31914 ft 501 kts 348°
2026-05-04 14:06 43.40349 1.35571 31915 ft 501 kts 348°
2026-05-04 14:07 43.47287 1.34428 31922 ft 502 kts 348°
2026-05-04 14:07 43.54206 1.33285 31919 ft 502 kts 348°
2026-05-04 14:08 43.61166 1.32133 31922 ft 501 kts 348°
2026-05-04 14:08 43.68129 1.30975 31922 ft 502 kts 348°
2026-05-04 14:09 43.78331 1.28348 31911 ft 500 kts 345°
2026-05-04 14:10 43.88548 1.25707 31902 ft 498 kts 345°
2026-05-04 14:10 43.95365 1.23940 31914 ft 498 kts 345°
2026-05-04 14:11 44.02147 1.22180 31899 ft 496 kts 345°
2026-05-04 14:11 44.12344 1.19523 31900 ft 497 kts 345°
2026-05-04 14:12 44.19125 1.17752 31910 ft 496 kts 345°
2026-05-04 14:13 44.29276 1.15093 31910 ft 494 kts 345°
2026-05-04 14:13 44.36037 1.13316 31906 ft 494 kts 345°
2026-05-04 14:14 44.42748 1.11548 31907 ft 495 kts 345°
2026-05-04 14:14 44.52875 1.08874 31903 ft 493 kts 346°
2026-05-04 14:15 44.66324 1.05306 31911 ft 491 kts 346°
2026-05-04 14:16 44.76362 1.02633 31918 ft 491 kts 346°
2026-05-04 14:17 44.86362 0.99960 31917 ft 489 kts 346°
2026-05-04 14:18 44.96341 0.97284 31917 ft 488 kts 346°
2026-05-04 14:19 45.09685 0.93689 31922 ft 487 kts 347°
2026-05-04 14:19 45.16359 0.91885 31910 ft 488 kts 347°
2026-05-04 14:20 45.23002 0.90085 31913 ft 489 kts 347°
2026-05-04 14:20 45.29654 0.88279 31912 ft 488 kts 347°
2026-05-04 14:21 45.39662 0.85553 31915 ft 488 kts 347°
2026-05-04 14:21 45.46295 0.83740 31912 ft 489 kts 347°
2026-05-04 14:22 45.52985 0.81908 31914 ft 488 kts 347°
2026-05-04 14:22 45.59617 0.80087 31921 ft 488 kts 347°
2026-05-04 14:23 45.69629 0.77330 31908 ft 488 kts 347°
2026-05-04 14:24 45.76245 0.75503 31903 ft 488 kts 347°
2026-05-04 14:24 45.82902 0.73659 31909 ft 488 kts 348°
2026-05-04 14:25 45.89579 0.71806 31897 ft 488 kts 348°
2026-05-04 14:25 45.99507 0.69042 31891 ft 487 kts 348°
2026-05-04 14:26 46.06162 0.67184 31894 ft 487 kts 348°
2026-05-04 14:26 46.12821 0.65320 31892 ft 487 kts 348°
2026-05-04 14:27 46.19458 0.63457 31889 ft 487 kts 348°
2026-05-04 14:27 46.26094 0.61591 31897 ft 488 kts 348°
2026-05-04 14:28 46.32730 0.59719 31899 ft 487 kts 348°
2026-05-04 14:28 46.39412 0.57830 31898 ft 487 kts 348°
2026-05-04 14:29 46.52673 0.54096 31896 ft 488 kts 351°
2026-05-04 14:30 46.59462 0.54118 31907 ft 489 kts
2026-05-04 14:31 46.69345 0.57430 31906 ft 489 kts 13°
2026-05-04 14:32 46.82644 0.61830 31907 ft 490 kts 13°
2026-05-04 14:32 46.89269 0.64027 31906 ft 489 kts 13°
2026-05-04 14:33 46.95876 0.66225 31910 ft 489 kts 13°
2026-05-04 14:33 47.02506 0.68436 31917 ft 488 kts 13°
2026-05-04 14:34 47.09254 0.69651 31928 ft 489 kts
2026-05-04 14:34 47.16014 0.70346 31919 ft 488 kts
2026-05-04 14:35 47.22792 0.71052 31926 ft 488 kts
2026-05-04 14:35 47.29532 0.71757 31929 ft 487 kts
2026-05-04 14:36 47.36273 0.72464 31930 ft 487 kts
2026-05-04 14:36 47.43040 0.73176 31935 ft 487 kts
2026-05-04 14:37 47.49772 0.74183 31943 ft 487 kts 13°
2026-05-04 14:37 47.56245 0.77140 31940 ft 487 kts 19°
2026-05-04 14:38 47.62649 0.80294 31933 ft 487 kts 19°
2026-05-04 14:38 47.69069 0.83461 31942 ft 486 kts 19°
2026-05-04 14:39 47.75439 0.86612 31942 ft 485 kts 19°
2026-05-04 14:39 47.81836 0.89784 31943 ft 485 kts 19°
2026-05-04 14:40 47.91419 0.94604 31937 ft 485 kts 19°
2026-05-04 14:40 47.97755 0.97811 31930 ft 485 kts 19°
2026-05-04 14:41 48.04160 1.01060 31931 ft 485 kts 19°
2026-05-04 14:42 48.16965 1.07582 31923 ft 487 kts 20°
2026-05-04 14:42 48.23324 1.10829 31924 ft 487 kts 19°
2026-05-04 14:43 48.29737 1.14096 31926 ft 488 kts 19°
2026-05-04 14:43 48.36136 1.17365 31929 ft 486 kts 19°
2026-05-04 14:44 48.42509 1.20630 31928 ft 487 kts 19°
2026-05-04 14:44 48.48931 1.23928 31929 ft 487 kts 19°
2026-05-04 14:45 48.55319 1.27216 31931 ft 487 kts 19°
2026-05-04 14:45 48.61705 1.30428 31927 ft 487 kts 19°
2026-05-04 14:46 48.68156 1.33681 31928 ft 488 kts 19°
2026-05-04 14:46 48.74559 1.36920 31927 ft 488 kts 19°
2026-05-04 14:47 48.80996 1.40184 31926 ft 489 kts 19°
2026-05-04 14:47 48.87466 1.43475 31927 ft 489 kts 19°
2026-05-04 14:48 48.93894 1.46902 31924 ft 489 kts 25°
2026-05-04 14:48 48.99581 1.52394 31938 ft 486 kts 43°
2026-05-04 14:49 49.04162 1.59898 31928 ft 482 kts 51°
2026-05-04 14:49 49.08573 1.67503 31920 ft 483 kts 51°
2026-05-04 14:50 49.13018 1.75150 31913 ft 482 kts 51°
2026-05-04 14:50 49.17459 1.82810 31916 ft 483 kts 51°
2026-05-04 14:51 49.21878 1.90454 31916 ft 483 kts 51°
2026-05-04 14:51 49.26319 1.98158 31920 ft 485 kts 51°
2026-05-04 14:52 49.30781 2.05922 31921 ft 485 kts 51°
2026-05-04 14:52 49.35209 2.13651 31927 ft 486 kts 51°
2026-05-04 14:53 49.39650 2.21425 31931 ft 486 kts 51°
2026-05-04 14:53 49.44094 2.29228 31931 ft 485 kts 51°
2026-05-04 14:54 49.48525 2.37030 31927 ft 486 kts 51°
2026-05-04 14:54 49.52982 2.44901 31920 ft 487 kts 51°
2026-05-04 14:55 49.58060 2.51767 31921 ft 492 kts 33°
2026-05-04 14:55 49.63890 2.57286 31924 ft 493 kts 33°
2026-05-04 14:56 49.69647 2.62855 31916 ft 493 kts 33°
2026-05-04 14:56 49.75469 2.68514 31919 ft 493 kts 34°
2026-05-04 14:57 49.81241 2.74141 31920 ft 493 kts 33°
2026-05-04 14:57 49.87037 2.79807 31925 ft 494 kts 33°
2026-05-04 14:58 49.92805 2.85462 31935 ft 493 kts 33°
2026-05-04 14:58 49.97627 2.90203 31941 ft 495 kts 33°
2026-05-04 14:59 50.04428 2.96907 31941 ft 494 kts 33°
2026-05-04 15:00 50.13085 3.05473 31926 ft 493 kts 33°
2026-05-04 15:00 50.18823 3.11173 31930 ft 492 kts 33°
2026-05-04 15:01 50.27830 3.18668 31936 ft 490 kts 24°
2026-05-04 15:01 50.34042 3.23014 31928 ft 491 kts 24°
2026-05-04 15:02 50.40256 3.27385 31945 ft 491 kts 24°
2026-05-04 15:02 50.46354 3.32131 31944 ft 490 kts 26°
2026-05-04 15:03 50.52470 3.36882 31942 ft 491 kts 24°
2026-05-04 15:03 50.58670 3.41095 31942 ft 489 kts 23°
2026-05-04 15:04 50.64806 3.45321 31929 ft 471 kts 23°
2026-05-04 15:04 50.70708 3.49400 31469 ft 455 kts 24°
2026-05-04 15:05 50.73562 3.51376 30755 ft 452 kts 23°
2026-05-04 15:05 50.76409 3.53351 29982 ft 449 kts 24°
2026-05-04 15:05 50.79267 3.55335 29226 ft 445 kts 24°
2026-05-04 15:05 50.82055 3.57275 28486 ft 441 kts 23°
2026-05-04 15:06 50.84839 3.59213 27802 ft 442 kts 23°
2026-05-04 15:06 50.87702 3.61209 27422 ft 444 kts 23°
2026-05-04 15:06 50.90527 3.62892 26987 ft 438 kts 14°
2026-05-04 15:07 50.96444 3.64018 26144 ft 425 kts
2026-05-04 15:07 50.99386 3.64212 25719 ft 421 kts
2026-05-04 15:07 51.02338 3.64402 25288 ft 418 kts
2026-05-04 15:07 51.05212 3.64586 24885 ft 414 kts
2026-05-04 15:08 51.08075 3.64769 24486 ft 411 kts
2026-05-04 15:08 51.10888 3.64948 24091 ft 408 kts
2026-05-04 15:08 51.13718 3.65129 23915 ft 403 kts
2026-05-04 15:08 51.16514 3.65307 23948 ft 406 kts
2026-05-04 15:09 51.19336 3.65488 23956 ft 407 kts
2026-05-04 15:09 51.22180 3.65671 23962 ft 408 kts
2026-05-04 15:09 51.25013 3.66051 23956 ft 411 kts 13°
2026-05-04 15:10 51.29503 3.71241 23999 ft 414 kts 60°
2026-05-04 15:10 51.30470 3.75512 24005 ft 412 kts 84°
2026-05-04 15:10 51.30654 3.84610 23977 ft 413 kts 73°
2026-05-04 15:11 51.31982 3.88646 23961 ft 416 kts 51°
2026-05-04 15:11 51.34120 3.91633 23562 ft 412 kts 27°
2026-05-04 15:11 51.36775 3.93200 23213 ft 405 kts 13°
2026-05-04 15:11 51.39500 3.94240 22828 ft 400 kts 11°
2026-05-04 15:12 51.42190 3.95243 22448 ft 397 kts 12°
2026-05-04 15:12 51.44864 3.96206 22065 ft 394 kts 11°
2026-05-04 15:12 51.47522 3.97179 21690 ft 392 kts 13°
2026-05-04 15:12 51.50126 3.98422 21300 ft 389 kts
2026-05-04 15:13 51.52757 3.99187 20934 ft 385 kts
2026-05-04 15:13 51.55401 4.00077 20518 ft 385 kts 11°
2026-05-04 15:13 51.57984 4.00995 20050 ft 381 kts 11°
2026-05-04 15:13 51.60531 4.01919 19601 ft 377 kts 12°
2026-05-04 15:14 51.63070 4.02848 19135 ft 368 kts 12°
2026-05-04 15:14 51.65532 4.03751 18652 ft 361 kts 12°
2026-05-04 15:14 51.67960 4.04642 18202 ft 353 kts 12°
2026-05-04 15:14 51.70334 4.05516 17749 ft 347 kts 12°
2026-05-04 15:15 51.72677 4.06379 17298 ft 341 kts 12°
2026-05-04 15:15 51.74958 4.07220 16826 ft 336 kts 12°
2026-05-04 15:15 51.77212 4.08052 16325 ft 332 kts 12°
2026-05-04 15:16 51.81682 4.09704 15335 ft 326 kts 12°
2026-05-04 15:16 51.83878 4.10517 14860 ft 323 kts 12°
2026-05-04 15:16 51.88169 4.12347 13825 ft 317 kts 12°
2026-05-04 15:17 51.90292 4.13114 13344 ft 315 kts 12°
2026-05-04 15:17 51.94530 4.14672 12357 ft 311 kts 12°
2026-05-04 15:17 51.96624 4.15450 11833 ft 307 kts 12°
2026-05-04 15:18 51.98692 4.16226 11278 ft 300 kts 12°
2026-05-04 15:18 52.00690 4.16978 10767 ft 295 kts 12°
2026-05-04 15:18 52.02679 4.17725 10288 ft 292 kts 12°
2026-05-04 15:19 52.06624 4.19226 9026 ft 287 kts 12°
2026-05-04 15:19 52.08548 4.19965 8407 ft 284 kts 12°
2026-05-04 15:19 52.12338 4.21418 7166 ft 277 kts 12°
2026-05-04 15:20 52.14197 4.22119 6521 ft 274 kts 12°
2026-05-04 15:20 52.16031 4.22803 5892 ft 271 kts 12°
2026-05-04 15:20 52.17885 4.23488 5289 ft 270 kts 12°
2026-05-04 15:20 52.19693 4.24151 4650 ft 268 kts 12°
2026-05-04 15:21 52.21478 4.24801 3973 ft 262 kts 12°
2026-05-04 15:21 52.23244 4.25439 3342 ft 255 kts 12°
2026-05-04 15:21 52.26387 4.26926 3015 ft 215 kts 42°
2026-05-04 15:22 52.27082 4.29027 3046 ft 217 kts 85°
2026-05-04 15:22 52.26685 4.31378 3044 ft 223 kts 128°
2026-05-04 15:22 52.24039 4.34021 2879 ft 222 kts 153°
2026-05-04 15:23 52.22659 4.35124 2425 ft 224 kts 153°
2026-05-04 15:23 52.21268 4.36218 2041 ft 218 kts 153°
2026-05-04 15:23 52.20152 4.37636 1974 ft 192 kts 113°
2026-05-04 15:23 52.19833 4.39661 2030 ft 184 kts 94°
2026-05-04 15:24 52.19587 4.43799 1992 ft 183 kts 92°
2026-05-04 15:24 52.19334 4.47896 1981 ft 183 kts 92°
2026-05-04 15:25 52.19565 4.49883 1919 ft 179 kts 56°
2026-05-04 15:25 52.20266 4.51532 1897 ft 178 kts 54°
2026-05-04 15:25 52.20966 4.53232 1845 ft 178 kts 55°
2026-05-04 15:26 52.22307 4.56633 1756 ft 178 kts 56°
2026-05-04 15:26 52.22958 4.58328 1768 ft 178 kts 56°
2026-05-04 15:26 52.24224 4.61591 1727 ft 151 kts 57°
2026-05-04 15:27 52.24761 4.62972 1502 ft 135 kts 55°
2026-05-04 15:27 52.25705 4.65418 1172 ft 125 kts 57°
2026-05-04 15:28 52.26632 4.67844 859 ft 127 kts 57°
2026-05-04 15:28 52.27094 4.69074 680 ft 129 kts 57°
2026-05-04 15:28 52.28066 4.71550 335 ft 130 kts 55°
2026-05-04 15:29 52.28542 4.72784 156 ft 130 kts 57°
2026-05-04 15:30 52.29879 4.75884 -4 ft 5 kts 30°
2026-05-04 15:30 52.29884 4.75890 -4 ft 0 kts 30°
2026-05-04 15:32 52.29888 4.75894 -4 ft 1 kts 30°
2026-05-04 15:33 52.29961 4.75958 -2 ft 11 kts 28°
2026-05-04 15:34 52.30180 4.76481 -1 ft 23 kts 57°
2026-05-04 15:34 52.30277 4.76727 -2 ft 26 kts 59°
2026-05-04 15:34 52.30480 4.77259 4 ft 26 kts 57°
2026-05-04 15:35 52.30735 4.77606 5 ft 25 kts
2026-05-04 15:35 52.30833 4.77516 7 ft 17 kts 270°
2026-05-04 15:35 52.30841 4.77320 11 ft 16 kts 276°
2026-05-04 15:36 52.30887 4.77236 11 ft 4 kts
2026-05-04 15:36 52.30893 4.77236 11 ft 0 kts